Date String (YYYY-MM-DD hh:mm:ss) UTC,Instrument flags,absolute air pressure of the measurement (hPa),sample flow rate (lpm),inlet stack bypass flow (lpm),air temperature of the measurement (°C),ambient temperature measured by the external sensor (°C),aerosol sample conditioner tube jacket temperature (°C),OPC LED temperature (°C),internal box temperature (°C),relative humidity of the measurement (%),span deviation,mass concentration of particles derived from Lorenz-Mie calculation of OPC scattering (μg/m³),mass concentration of particles derived from Lorenz-Mie calculation of OPC scattering (μg/m³),mass concentration of particles derived from Lorenz-Mie calculation of OPC scattering (μg/m³)
DateTimeUTC,F1_M11,P_M11,Q1_M11,Q2_M11,T1_M11,T2_M11,T3_M11,T4_M11,T5_M11,U1_M11,ZSPAN_M11,X2_M11,X0_M11,X1_M11
2024-02-09 02:00:00,SystemResetWarning,0820.1,5.00,000.00,020.0,019.3,000.0,028.3,021.6,11.0,0000.0,0000.29,0000.45,0000.22
2024-02-09 02:01:00,SystemResetWarning,0820.1,5.00,000.00,020.0,019.3,000.0,028.3,021.5,11.2,0000.0,0000.27,0000.41,0000.22
2024-02-09 02:02:00,SystemResetWarning,0819.8,5.00,000.00,020.0,019.3,000.0,028.3,021.6,11.5,0000.0,0000.28,0000.43,0000.22
2024-02-09 02:03:00,SystemResetWarning,0819.7,4.99,000.00,020.0,019.3,000.0,028.3,021.6,11.7,0000.0,0000.28,0000.45,0000.22
2024-02-09 02:04:00,SystemResetWarning,0820.0,4.99,000.00,020.0,019.3,000.0,028.3,021.6,11.7,0000.0,0000.27,0000.42,0000.22
2024-02-09 02:05:00,SystemResetWarning,0820.0,5.00,000.00,020.0,019.3,000.0,028.3,021.6,11.5,0000.0,0000.28,0000.42,0000.22
2024-02-09 02:06:00,SystemResetWarning,0819.7,5.00,000.00,020.0,019.3,000.0,028.3,021.6,11.5,0000.0,0000.27,0000.39,0000.22
2024-02-09 02:07:00,SystemResetWarning,0819.9,5.01,000.00,020.0,019.3,000.0,028.3,021.5,11.5,0000.0,0000.26,0000.40,0000.22
2024-02-09 02:08:00,SystemResetWarning,0820.2,5.01,000.00,020.0,019.2,000.0,028.3,021.5,11.2,0000.0,0000.29,0000.99,0000.22
2024-02-09 02:09:00,SystemResetWarning,0819.8,5.00,000.00,019.9,019.2,000.0,028.2,021.5,11.3,0000.0,0000.28,0001.04,0000.21
2024-02-09 02:10:00,SystemResetWarning,0819.8,5.00,000.00,019.9,019.2,000.0,028.2,021.5,11.4,0000.0,0000.29,0001.08,0000.21
2024-02-09 02:11:00,SystemResetWarning,0819.9,4.99,000.00,019.9,019.2,000.0,028.2,021.5,11.4,0000.0,0000.30,0001.10,0000.21
2024-02-09 02:12:00,SystemResetWarning,0819.9,5.00,000.00,019.9,019.2,000.0,028.2,021.5,11.6,0000.0,0000.31,0001.13,0000.20
2024-02-09 02:13:00,SystemResetWarning,0819.8,5.00,000.00,019.9,019.2,000.0,028.2,021.5,11.5,0000.0,0000.32,0001.16,0000.20
2024-02-09 02:14:00,SystemResetWarning,0819.8,5.01,000.00,019.9,019.2,000.0,028.2,021.5,11.6,0000.0,0000.31,0001.15,0000.19
2024-02-09 02:15:00,SystemResetWarning,0820.0,5.00,000.00,019.9,019.1,000.0,028.2,021.5,11.5,0000.0,0000.31,0001.15,0000.19
2024-02-09 02:16:00,SystemResetWarning,0819.9,5.01,000.00,019.9,019.1,000.0,028.2,021.5,11.9,0000.0,0000.32,0001.16,0000.19
2024-02-09 02:17:00,SystemResetWarning,0819.8,4.99,000.00,019.8,019.1,000.0,028.2,021.5,11.8,0000.0,0000.33,0001.17,0000.19
2024-02-09 02:18:00,SystemResetWarning,0819.8,4.99,000.00,019.8,019.1,000.0,028.2,021.4,11.8,0000.0,0000.31,0001.11,0000.19
2024-02-09 02:19:00,SystemResetWarning,0819.9,5.00,000.00,019.8,019.1,000.0,028.1,021.4,11.7,0000.0,0000.29,0000.54,0000.18
2024-02-09 02:20:00,SystemResetWarning,0820.1,5.01,000.00,019.8,019.0,000.0,028.1,021.4,11.7,0000.0,0000.29,0000.62,0000.19
2024-02-09 02:21:00,SystemResetWarning,0820.1,5.01,000.00,019.8,019.0,000.0,028.1,021.4,11.6,0000.0,0000.28,0000.60,0000.19
2024-02-09 02:22:00,SystemResetWarning,0820.0,5.01,000.00,019.8,019.0,000.0,028.1,021.4,11.4,0000.0,0000.28,0000.61,0000.19
2024-02-09 02:23:00,SystemResetWarning,0819.9,4.99,000.00,019.8,019.0,000.0,028.1,021.3,11.6,0000.0,0000.28,0000.66,0000.19
2024-02-09 02:24:00,SystemResetWarning,0819.9,4.99,000.00,019.7,019.0,000.0,028.1,021.3,11.7,0000.0,0000.27,0000.63,0000.20
2024-02-09 02:25:00,SystemResetWarning,0820.1,5.00,000.00,019.7,019.0,000.0,028.1,021.3,11.8,0000.0,0000.26,0000.59,0000.20
2024-02-09 02:26:00,SystemResetWarning,0820.0,5.00,000.00,019.7,019.0,000.0,028.0,021.3,11.7,0000.0,0000.27,0000.61,0000.20
2024-02-09 02:27:00,SystemResetWarning,0820.0,5.01,000.00,019.7,019.0,000.0,028.0,021.3,11.4,0000.0,0000.27,0000.62,0000.20
2024-02-09 02:28:00,SystemResetWarning,0819.9,5.00,000.00,019.7,018.9,000.0,028.0,021.3,11.8,0000.0,0000.26,0000.61,0000.20
2024-02-09 02:29:00,SystemResetWarning,0820.0,5.00,000.00,019.7,018.9,000.0,028.0,021.3,11.7,0000.0,0000.27,0000.64,0000.19
2024-02-09 02:30:00,SystemResetWarning,0819.9,4.99,000.00,019.7,018.9,000.0,028.0,021.2,11.5,0000.0,0000.27,0000.63,0000.20
2024-02-09 02:31:00,SystemResetWarning,0820.2,5.00,000.00,019.7,018.9,000.0,028.0,021.2,11.5,0000.0,0000.27,0000.50,0000.20
2024-02-09 02:32:00,SystemResetWarning,0820.0,5.01,000.00,019.6,018.9,000.0,027.9,021.2,11.7,0000.0,0000.27,0000.47,0000.21
2024-02-09 02:33:00,SystemResetWarning,0820.0,5.00,000.00,019.6,018.9,000.0,027.9,021.2,11.9,0000.0,0000.28,0000.47,0000.22
2024-02-09 02:34:00,SystemResetWarning,0820.0,5.00,000.00,019.6,018.9,000.0,027.9,021.2,12.0,0000.0,0000.29,0000.44,0000.22
2024-02-09 02:35:00,SystemResetWarning,0820.0,5.00,000.00,019.6,018.9,000.0,027.9,021.2,11.3,0000.0,0000.32,0000.50,0000.23
2024-02-09 02:36:00,SystemResetWarning,0819.9,4.99,000.00,019.6,018.9,000.0,027.9,021.2,11.4,0000.0,0000.33,0000.51,0000.23
2024-02-09 02:37:00,SystemResetWarning,0820.0,5.01,000.00,019.6,018.9,000.0,027.9,021.2,11.4,0000.0,0000.34,0000.55,0000.24
2024-02-09 02:38:00,SystemResetWarning,0820.0,5.01,000.00,019.6,018.9,000.0,027.9,021.1,11.8,0000.0,0000.36,0000.58,0000.24
2024-02-09 02:39:00,SystemResetWarning,0819.9,4.99,000.00,019.6,018.9,000.0,027.9,021.1,11.7,0000.0,0000.36,0000.58,0000.24
2024-02-09 02:40:00,SystemResetWarning,0819.9,4.99,000.00,019.6,018.9,000.0,027.9,021.1,11.4,0000.0,0000.34,0000.55,0000.24
2024-02-09 02:41:00,SystemResetWarning,0820.0,5.00,000.00,019.6,018.8,000.0,027.9,021.1,11.7,0000.0,0000.34,0000.55,0000.24
2024-02-09 02:42:00,SystemResetWarning,0819.9,5.02,000.00,019.6,018.9,000.0,027.8,021.1,11.6,0000.0,0000.35,0000.58,0000.24
2024-02-09 02:43:00,SystemResetWarning,0819.9,4.98,000.00,019.5,018.8,000.0,027.8,021.1,11.4,0000.0,0000.34,0000.59,0000.23
2024-02-09 02:44:00,SystemResetWarning,0820.1,5.00,000.00,019.5,018.8,000.0,027.8,021.1,11.5,0000.0,0000.34,0000.60,0000.22
2024-02-09 02:45:00,SystemResetWarning,0820.1,5.02,000.00,019.5,018.8,000.0,027.8,021.1,11.6,0000.0,0000.32,0000.54,0000.22
2024-02-09 02:46:00,SystemResetWarning,0819.9,4.99,000.00,019.5,018.8,000.0,027.8,021.1,11.4,0000.0,0000.30,0000.52,0000.21
2024-02-09 02:47:00,SystemResetWarning,0819.9,5.00,000.00,019.5,018.8,000.0,027.8,021.0,11.4,0000.0,0000.31,0000.54,0000.21
2024-02-09 02:48:00,SystemResetWarning,0820.0,4.99,000.00,019.5,018.8,000.0,027.8,021.0,11.5,0000.0,0000.27,0000.47,0000.19
2024-02-09 02:49:00,SystemResetWarning,0820.3,4.99,000.00,019.5,018.8,000.0,027.8,021.0,11.6,0000.0,0000.25,0000.41,0000.19
2024-02-09 02:50:00,SystemResetWarning,0820.0,5.00,000.00,019.5,018.8,000.0,027.8,021.0,11.7,0000.0,0000.25,0000.41,0000.19
2024-02-09 02:51:00,SystemResetWarning,0820.0,5.01,000.00,019.5,018.8,000.0,027.8,021.0,12.1,0000.0,0000.24,0000.41,0000.18
2024-02-09 02:52:00,SystemResetWarning,0820.1,5.01,000.00,019.5,018.8,000.0,027.8,021.0,11.8,0000.0,0000.24,0000.40,0000.18
2024-02-09 02:53:00,SystemResetWarning,0820.2,4.99,000.00,019.4,018.7,000.0,027.7,021.0,11.8,0000.0,0000.24,0000.40,0000.18
2024-02-09 02:54:00,SystemResetWarning,0820.1,4.99,000.00,019.4,018.7,000.0,027.7,021.0,12.1,0000.0,0000.25,0000.41,0000.19
2024-02-09 02:55:00,SystemResetWarning,0819.9,5.00,000.00,019.4,018.8,000.0,027.7,021.0,12.1,0000.0,0000.25,0000.40,0000.18
2024-02-09 02:56:00,SystemResetWarning,0819.9,5.00,000.00,019.4,018.8,000.0,027.7,021.0,12.0,0000.0,0000.26,0000.43,0000.18
2024-02-09 02:57:00,SystemResetWarning,0820.0,5.01,000.00,019.4,018.7,000.0,027.7,021.0,12.0,0000.0,0000.26,0000.51,0000.18
2024-02-09 02:58:00,SystemResetWarning,0819.9,5.01,000.00,019.4,018.7,000.0,027.7,021.0,12.1,0000.0,0000.25,0000.48,0000.18
2024-02-09 02:59:00,SystemResetWarning,0820.1,4.99,000.00,019.4,018.7,000.0,027.7,021.0,12.0,0000.0,0000.25,0000.48,0000.18
